This is the latest recevied weather packets stored in our database for station/object KE6LRO. If no packets are shown the sender has not sent any weather packets the latest 10 day(s).
| Time | Temp. | Humidity | Pressure | Rain* | Wind** | Luminosity | Snow |
|---|---|---|---|---|---|---|---|
| 1778038542 | 6.67° C | 64% | 1020.4 hPa | 0 mm | - | 0 W/m² | - |
| 1778038238 | 5.56° C | 66% | 1020.2 hPa | 0 mm | - | 0 W/m² | - |
| 1778037936 | 6.11° C | 63% | 1020.1 hPa | 0 mm | - | 0 W/m² | - |
| 1778037632 | 6.11° C | 65% | 1020.1 hPa | 0 mm | - | 0 W/m² | - |
| 1778037330 | 6.11° C | 64% | 1019.8 hPa | 0 mm | - | 0 W/m² | - |
| 1778037027 | 6.67° C | 64% | 1020.1 hPa | 0 mm | - | 0 W/m² | - |
| 1778036725 | 6.67° C | 62% | 1020.1 hPa | 0 mm | - | 1 W/m² | - |
| 1778036422 | 7.22° C | 63% | 1019.4 hPa | 0 mm | - | 1 W/m² | - |
| 1778036119 | 7.22° C | 61% | 1019.4 hPa | 0 mm | - | 3 W/m² | - |
| 1778035815 | 7.78° C | 59% | 1019.5 hPa | 0 mm | - | 4 W/m² | - |
| 1778035512 | 8.33° C | 58% | 1019.4 hPa | 0 mm | - | 6 W/m² | - |
| 1778035208 | 8.89° C | 56% | 1019.3 hPa | 0 mm | - | 8 W/m² | - |
| 1778034904 | 8.89° C | 52% | 1019.4 hPa | 0 mm | - | 10 W/m² | - |
| 1778034601 | 9.44° C | 50% | 1019.1 hPa | 0 mm | - | 13 W/m² | - |
| 1778034299 | 8.89° C | 51% | 1019.2 hPa | 0 mm | - | 15 W/m² | - |
| 1778033997 | 9.44° C | 51% | 1019.1 hPa | 0 mm | - | 17 W/m² | - |
| 1778033694 | 10° C | 50% | 1018.9 hPa | 0 mm | - | 19 W/m² | - |
| 1778033391 | 10.56° C | 49% | 1019.2 hPa | 0 mm | - | 21 W/m² | - |
| 1778033089 | 10.56° C | 46% | 1018.8 hPa | 0 mm | - | 22 W/m² | - |
| 1778032785 | 11.67° C | 44% | 1018.8 hPa | 0 mm | - | 24 W/m² | - |
| 1778032483 | 11.67° C | 42% | 1018.9 hPa | 0 mm | - | 25 W/m² | - |
| 1778032180 | 11.67° C | 41% | 1018.7 hPa | 0 mm | - | 27 W/m² | - |
| 1778031877 | 12.78° C | 40% | 1018.9 hPa | 0 mm | - | 28 W/m² | - |
| 1778031573 | 13.89° C | 37% | 1018.9 hPa | 0 mm | - | 35 W/m² | - |
| 1778031271 | 13.89° C | 34% | 1019.1 hPa | 0 mm | - | 49 W/m² | - |
* Rain latest hour (hover to see other rain measurements)
** Current wind speed in m/s (hover to see current wind gust speed)